Weather in Parizh

Russia / Chelyabinsk Oblast     53°17′47″N   60°06′05″E
temp.,
°C
wind,
m/s
gust,
m/s
humid.,
%
clouds,
%
prec.,
mm/h
press.,
hPa
HPBL,
m
15 may, sat
sat1523:00+20wsw33360 0.0 102428
02:00+17wnw46545 0.0 102473
05:00+16wnw34540 0.0 102546
08:00+21nw34435 0.0 1025177
11:00+26w34295 0.0 10241011
14:00+28w33215 0.0 10232423
17:00+29wnw23225 0.0 10223209
20:00+24sw2338100 0.0 102243
16 may, sun
sun1623:00+19w3451100 0.6 102466
02:00+18nnw455687 0.0 102367
05:00+16wnw22631 0.0 102311
08:00+21w23490 0.0 1024177
11:00+26sw22335 0.0 10231063
14:00+29sw34255 0.0 10222633
17:00+29sw34245 0.0 10213076
20:00+24wsw33385 0.0 102125
17 may, mon
mon1723:00+19wnw34535 0.0 102246
02:00+18wnw23530 0.0 102215
05:00+16w33605 0.0 102242
08:00+22w34480 0.0 1023197
11:00+27wnw44290 0.0 10222039
14:00+29w452392 0.0 10213513
17:00+27w883182 0.0 1020760
20:00+23wnw49445 0.0 1020222
18 may, tue
tue1823:00+19nw225214 0.0 102111
02:00+18w33501 0.0 102029
05:00+16w46595 0.0 102085
08:00+21wnw35485 0.0 1020184
11:00+27wnw34335 0.0 10192109
14:00+29wnw342579 0.0 10183455
17:00+27nnw9832100 0.0 10171113
20:00+20nne33526 0.6 101741
19 may, wed
wed1923:00+18nnw4859100 0.9 1018117
02:00+17n4561100 1.1 101853
05:00+14nne477595 1.2 1019115
08:00+17ne686398 0.0 1020396
11:00+20ene665187 0.0 10211057
14:00+23ene55400 0.0 10211774
17:00+23ene55360 0.0 10211830
20:00+19e36510 0.0 1022103